This is the latest recevied weather packets stored in our database for station/object ALANSN-2. If no packets are shown the sender has not sent any weather packets the latest 10 day(s).
| Time | Temp. | Humidity | Pressure | Rain* | Wind** | Luminosity | Snow |
|---|---|---|---|---|---|---|---|
| 1787658119 | 10° C | 99% | 1031 hPa | 0 mm | - | 19 W/m² | - |
| 1787657821 | 10° C | 99% | 1030.9 hPa | 0 mm | - | 20 W/m² | - |
| 1787657520 | 10° C | 99% | 1030.8 hPa | 0 mm | - | 17 W/m² | - |
| 1787657220 | 10° C | 99% | 1030.8 hPa | 0 mm | - | 17 W/m² | - |
| 1787656920 | 9.44° C | 99% | 1030.8 hPa | 0 mm | - | 16 W/m² | - |
| 1787656620 | 9.44° C | 99% | 1030.5 hPa | 0 mm | - | 6 W/m² | - |
| 1787656320 | 9.44° C | 99% | 1030.5 hPa | 0 mm | - | 6 W/m² | - |
| 1787656020 | 9.44° C | 99% | 1030.5 hPa | 0 mm | - | 6 W/m² | - |
| 1787655720 | 9.44° C | 99% | 1030.7 hPa | 0 mm | - | 4 W/m² | - |
| 1787655418 | 9.44° C | 99% | 1030.4 hPa | 0 mm | - | 1 W/m² | - |
| 1787655120 | 9.44° C | 99% | 1030.5 hPa | 0 mm | - | 0 W/m² | - |
| 1787654820 | 9.44° C | 99% | 1030.4 hPa | 0 mm | - | 0 W/m² | - |
| 1787654520 | 9.44° C | 99% | 1030.4 hPa | 0 mm | - | 0 W/m² | - |
| 1787654221 | 9.44° C | 99% | 1030.2 hPa | 0 mm | - | 0 W/m² | - |
| 1787653919 | 9.44° C | 99% | 1030.5 hPa | 0 mm | - | 0 W/m² | - |
| 1787653621 | 10° C | 99% | 1030.5 hPa | 0 mm | - | 0 W/m² | - |
| 1787653319 | 9.44° C | 99% | 1030.4 hPa | 0 mm | - | 0 W/m² | - |
| 1787653020 | 9.44° C | 99% | 1030.6 hPa | 0 mm | - | 0 W/m² | - |
| 1787652717 | 10° C | 99% | 1030.3 hPa | 0 mm | - | 0 W/m² | - |
| 1787652420 | 10° C | 99% | 1030.4 hPa | 0 mm | - | 0 W/m² | - |
| 1787652120 | 10° C | 99% | 1030.4 hPa | 0 mm | - | 0 W/m² | - |
| 1787651820 | 9.44° C | 99% | 1030.3 hPa | 0 mm | - | 0 W/m² | - |
| 1787651520 | 9.44° C | 99% | 1030.3 hPa | 0 mm | - | 0 W/m² | - |
| 1787651224 | 9.44° C | 99% | 1030.6 hPa | 0 mm | - | 0 W/m² | - |
| 1787650920 | 10° C | 99% | 1030.5 hPa | 0 mm | - | 0 W/m² | - |
* Rain latest hour (hover to see other rain measurements)
** Current wind speed in m/s (hover to see current wind gust speed)